EW0288 Weather Reports


time (UTC)temp
C
wind
direction
speed
KPH
gust
KPH
rain 1hr
cm
rain 24hr
cm
rain mn
cm
humidity
%
barometer
mb
20260506231508 9 344 0.0 6.4 0.03 1.93 1.91 96 1007.7
20260506230011 9 344 0.0 6.4 0.03 1.93 1.91 96 1007.8
20260506224535 9 349 0.0 3.2 0.00 1.91 1.88 95 1007.5
20260506223015 8 339 1.6 4.8 0.05 1.91 1.88 95 1007.2
20260506221526 9 336 1.6 6.4 0.05 1.91 1.88 94 1007.1
20260506220120 9 12 3.2 12.9 0.05 1.91 1.88 93 1006.6
20260506214514 10 42 4.8 12.9 0.15 1.91 1.88 92 1006.3
20260506213036 11 68 6.4 17.7 0.46 1.85 1.85 92 1006.1
20260506211510 12 3 6.4 14.5 0.46 1.85 1.83 94 1005.4
20260506210043 13 314 4.8 14.5 0.46 1.85 1.83 93 1005.0
20260506204552 15 12 6.4 22.5 0.41 1.80 1.78 93 1005.1
20260506203100 16 125 1.6 6.4 0.00 1.40 1.37 97 1004.1
20260506203008 16 125 3.2 6.4 0.00 1.40 1.37 97 1004.1
20260506201533 16 133 0.0 4.8 0.00 1.40 1.37 97 1004.2
20260506200112 16 354 0.0 8.0 0.00 1.40 1.37 98 1004.3
20260506194623 16 160 0.0 3.2 0.03 1.40 1.37 98 1004.5
20260506194502 16 160 0.0 3.2 0.03 1.40 1.37 97 1004.5
20260506193028 16 263 1.6 8.0 0.08 1.40 1.37 97 1004.5
20260506191555 16 161 0.0 6.4 0.18 1.40 1.37 98 1004.7
20260506190123 16 270 0.0 6.4 0.23 1.40 1.37 98 1004.6
20260506184524 15 277 0.0 0.0 0.23 1.37 1.35 97 1004.9
20260506183106 15 277 0.0 1.6 0.23 1.32 1.30 97 1005.0
20260506181529 15 329 0.0 3.2 0.28 1.22 1.19 97 1005.0
20260506180100 15 81 0.0 3.2 0.28 1.17 1.14 97 1005.2
20260506174504 15 181 1.6 8.0 0.28 1.12 1.12 98 1005.0
20260506173047 15 158 1.6 4.8 0.28 1.09 1.07 97 1005.1
20260506171600 15 328 0.0 6.4 0.18 0.94 0.91 97 1005.6
20260506170120 14 187 1.6 4.8 0.18 0.89 0.86 97 1005.4
20260506164524 14 26 0.0 4.8 0.18 0.84 0.81 97 1005.8
20260506163052 13 153 0.0 3.2 0.20 0.81 0.79 96 1005.9
20260506161522 13 132 0.0 3.2 0.23 0.76 0.71 96 1005.9
20260506160114 13 136 1.6 3.2 0.23 0.71 0.69 96 1006.2
20260506154518 13 147 0.0 3.2 0.23 0.66 0.64 96 1006.5
20260506153042 13 148 0.0 1.6 0.23 0.58 0.58 95 1006.6
20260506151522 12 147 0.0 0.0 0.28 0.53 0.51 95 1006.7
20260506150044 12 148 0.0 3.2 0.28 0.48 0.46 95 1006.8
20260506144548 12 147 0.0 1.6 0.25 0.43 0.41 95 1007.1
20260506143036 12 148 0.0 1.6 0.20 0.36 0.33 94 1007.4
20260506141552 12 148 0.0 1.6 0.13 0.25 0.23 94 1007.5
20260506140118 12 158 0.0 1.6 0.13 0.20 0.18 94 1007.6
20260506134524 12 158 0.0 3.2 0.10 0.18 0.15 93 1007.5
20260506133054 12 158 0.0 1.6 0.10 0.15 0.13 93 1007.1
20260506131527 12 191 0.0 1.6 0.08 0.10 0.08 93 1007.1
20260506130123 12 268 0.0 0.0 0.05 0.08 0.05 93 1007.1
20260506124552 12 269 1.6 3.2 0.05 0.08 0.05 92 1007.3
20260506123022 12 269 0.0 0.0 0.03 0.05 0.03 92 1007.6
20260506121552 12 268 0.0 0.0 0.00 0.03 0.00 91 1008.2
20260506120114 12 268 0.0 0.0 0.00 0.03 0.00 91 1008.0
20260506114520 12 269 0.0 3.2 0.00 0.03 0.00 91 1008.1
20260506113036 12 209 0.0 0.0 0.00 0.03 0.00 92 1007.5
20260506111510 12 208 1.6 4.8 0.00 0.03 0.00 91 1007.6
20260506110008 12 272 0.0 3.2 0.00 0.03 0.00 91 1007.5
20260506104536 12 272 0.0 3.2 0.00 0.10 0.00 91 1007.3
20260506103003 11 273 0.0 3.2 0.00 0.10 0.00 91 1007.1
20260506101543 11 273 0.0 0.0 0.00 0.10 0.00 90 1007.1
20260506100123 11 273 0.0 0.0 0.00 0.10 0.00 90 1007.0
20260506094519 11 273 0.0 3.2 0.00 0.33 0.00 89 1006.9
20260506093050 11 273 0.0 0.0 0.00 0.33 0.00 88 1007.1
20260506091510 12 273 0.0 3.2 0.00 0.33 0.00 87 1006.9
20260506090037 12 273 0.0 0.0 0.00 0.33 0.00 87 1007.3
20260506084531 12 273 0.0 0.0 0.00 0.33 0.00 86 1007.2
20260506083058 12 273 0.0 1.6 0.00 0.33 0.00 85 1007.4
20260506081519 12 273 0.0 0.0 0.00 0.33 0.00 85 1007.6
20260506073006 12 273 0.0 0.0 0.00 0.33 0.00 86 1008.0
20260506071526 12 273 0.0 0.0 0.00 0.33 0.00 85 1008.0
20260506061552 13 273 0.0 0.0 0.00 0.33 0.00 87 1008.7
20260506060117 13 273 0.0 0.0 0.00 0.33 0.00 87 1008.6
20260506044541 15 273 0.0 0.0 0.00 0.33 0.00 86 1008.8
20260506043007 15 273 0.0 3.2 0.00 0.33 0.00 85 1008.8
20260506041532 15 273 0.0 1.6 0.00 0.33 0.00 85 1008.9
20260506040059 15 273 0.0 4.8 0.00 0.33 0.00 82 1008.4
20260506034600 16 267 1.6 12.9 0.00 0.33 0.33 82 1008.5
20260506033027 16 284 3.2 14.5 0.00 0.33 0.33 86 1008.4
20260506031556 16 318 3.2 12.9 0.00 0.33 0.33 87 1008.3
20260506030109 16 225 0.0 9.7 0.03 0.33 0.33 89 1008.2
20260506024509 16 312 1.6 4.8 0.03 0.33 0.33 90 1008.4
20260506023031 16 340 0.0 0.0 0.03 0.33 0.33 88 1007.8
20260506021559 17 344 0.0 3.2 0.03 0.33 0.33 87 1007.9
20260506020004 17 340 3.2 4.8 0.00 0.30 0.30 85 1007.9
20260506014543 17 260 0.0 0.0 0.00 0.30 0.30 82 1007.7
20260506013053 17 260 0.0 1.6 0.00 0.30 0.30 81 1007.0
20260506011523 17 260 0.0 0.0 0.00 0.30 0.30 80 1007.0
20260506010051 17 259 0.0 0.0 0.00 0.30 0.30 79 1007.0
20260506004555 17 259 0.0 1.6 0.00 0.30 0.30 78 1006.9
20260506003014 17 259 0.0 0.0 0.00 0.30 0.30 78 1006.8
20260506001605 18 259 0.0 1.6 0.00 0.30 0.30 77 1006.3
20260506000106 18 260 0.0 3.2 0.00 0.30 0.30 77 1006.1
20260505234516 18 259 0.0 0.0 0.00 0.30 0.30 76 1006.1
20260505233037 18 260 0.0 0.0 0.00 0.30 0.30 76 1005.8